Regional Weather Roundup
Issued by NWS Wakefield, VA

Home | Current Version | Previous Version | Graphics & Text | Print | Product List | Glossary On
Versions: 1 2 3 4 5 6 7 8 9 10 11 12 13 14 15 16 17 18 19 20 21 22 23 24 25 26 27 28 29 30 31 32 33 34 35 36 37 38 39 40 41 42 43 44 45 46 47 48 49 50
000
ASUS41 KAKQ 121915
RWRAKQ

REGIONAL WEATHER ROUNDUP
NATIONAL WEATHER SERVICE WAKEFIELD VA
200 PM EST FRI FEB 12 2016

Note: "fair" indicates few or no clouds below 12,000 feet with no
significant weather and/or obstructions to visibility. * = Denotes
station may not report precipitation (e.g., rain,snow,etc.),
thunder or fog.

VAZ042-051-052>054-056-122000-
NORTHERN VIRGINIA

CITY           SKY/WX    TMP DP  RH WIND       PRES   REMARKS
WASH NATIONAL  CLOUDY    30   9  41 S13G20    30.12F WCI  20
DULLES         CLOUDY    29   6  38 VRB7      30.09F
FORT BELVOIR   CLOUDY    30   6  36 SW7       30.11F
QUANTICO       CLOUDY    31  12  45 S12       30.13F WCI  22
FREDERICKSBRG* FAIR      29   8  41 SW8       30.11F
STAFFORD*      CLOUDY    29   5  36 S9        30.14F
WARRENTON      CLOUDY    31  11  44 S8        30.08F
CULPEPER*      CLOUDY    29   7  38 S6        30.09F
MANASSAS*      MOSUNNY   30  10  43 S8        30.11F
LEESBURG*      CLOUDY    32  12  43 S8        30.08F
WINCHESTER     CLOUDY    30   9  40 SE5       30.03F
FRONT ROYAL*   CLOUDY    32   9  37 S5        30.01F
LURAY*         CLOUDY    32  10  40 S10       29.99F WCI  24
$$

VAZ048-049-060>072-079>083-122000-
CENTRAL AND SOUTH CENTRAL VIRGINIA

CITY           SKY/WX    TMP DP  RH WIND       PRES   REMARKS
RICHMOND       CLOUDY    27   7  42 S7        30.13F
CHESTERFIELD*  CLOUDY    28   1  31 S6        30.13F
PETERSBURG*    CLOUDY    32  -2  23 CALM      30.12F
HANOVER        CLOUDY    29   7  39 S6        30.14F
TAPPAHANNOCK*  CLOUDY    30   5  34 SE6       30.13F
QUINTON*       CLOUDY    28   7  40 SE3       30.13F
CHARLOTTSVILLE PTSUNNY   31   6  35 S8        30.06F
GORDONSVILLE*  CLOUDY    30   7  37 S8G16     30.07F
ORANGE*        CLOUDY    32   7  34 S9        30.09F
LOUISA*        PTSUNNY   30   7  37 SW5       30.07F
BUMPASS*       CLOUDY    30   7  37 S3        30.10F
FARMVILLE*     CLOUDY    31   9  38 SW3       30.08F
CREWE*         CLOUDY    29   6  39 E3        30.10F
FORT PICKETT*  NOT AVBL
CHASE CITY*    CLOUDY    26  18  71 CALM      30.11F
CLARKSVILLE*   CLOUDY    28  18  64 CALM      30.11F
SOUTH HILL*    CLOUDY    25  20  80 CALM      30.16F
LAWRENCEVILLE* CLOUDY    26  21  82 CALM      30.11F
EMPORIA*       FLURRIES  28  19  69 N5        30.14F
$$

VAZ088>098-122000-
SOUTHEAST VIRGINIA

CITY           SKY/WX    TMP DP  RH WIND       PRES   REMARKS
NORFOLK        CLOUDY    31  13  47 S7        30.14F
VIRGINIA BEACH FLURRIES  33  14  45 SE7       30.14F
NORFOLK NAVAL  CLOUDY    31  14  49 E6        30.15F
WEST POINT*    CLOUDY    29   6  38 SW3       30.15F
SALUDA*        CLOUDY    28  11  50 E6        30.13F
NEWPORT NEWS   CLOUDY    29  14  53 SE7       30.15F
LANGLEY AFB    PTSUNNY   29  13  50 SE5       30.14F
FORT EUSTIS    FAIR      30  15  53 S8        30.13F
WILLIAMSBURG*  PTSUNNY   34  14  44 CALM      30.15F
HR EXEC AP*    MOCLDY    30  12  47 SE5       30.15F
FRANKLIN*      CLOUDY    31  12  45 SE3       30.15F
US460-WAKEFLD  LGT SNOW  29  15  56 S3        30.14F
$$

VAZ020-022-025-037-045-122000-
WEST CENTRAL AND SOUTHWEST VIRGINIA

CITY           SKY/WX    TMP DP  RH WIND       PRES   REMARKS
STAUNTON*      CLOUDY    35  11  37 S9        30.00F
WAYNESBORO*    CLOUDY    31   6  34 S3        29.98F
HOT SPRINGS VA LGT SNOW  23  17  77 SW6       29.83F
LYNCHBURG      LGT SNOW  27  15  61 W5        30.07F
DANVILLE       CLOUDY    28  17  63 CALM      30.10F
SOUTH BOSTON*  CLOUDY    27  19  72 CALM      30.11F
MARTINSVILLE   CLOUDY    28  13  53 SE5       30.08F
ROANOKE        CLOUDY    30  14  51 SE9       30.05F
BLACKSBURG     CLOUDY    32  21  64 S5        29.98F
DUBLIN*        FLURRIES  32  22  67 SW7       29.98F
MARION*        LGT SNOW  30  27  87 SW9       29.98F
HILLSVILLE*      N/A    N/A N/A N/A MISG        N/A
RICHLANDS*     FLURRIES  27  23  85 W7        29.97F
WISE*          CLOUDY    30  23  74 SW6       29.98F
ABINGDON*      FLURRIES  32  28  84 W7        30.01F
$$

MDZ021>025-VAZ099-100-122000-
SOUTHERN MARYLAND AND THE DELMARVA PENINSULA

CITY           SKY/WX    TMP DP  RH WIND       PRES   REMARKS
PATUXENT RIVER CLOUDY    28   8  43 E10       30.14F WCI  19
BAY BRIDGE APT   N/A     28   3  34 CALM      30.12F
LEONARDTOWN    CLOUDY    28   7  40 S5        30.13F
DOVER          CLOUDY    28  10  47 SW12      30.12F WCI  18
GEORGETOWN     MOSUNNY   28   5  37 SW8       30.14F
EASTON         NOT AVBL
CAMBRIDGE      MOSUNNY   28   9  43 CALM      30.12F
SALISBURY      PTSUNNY   29   5  36 W5        30.13F
OCEAN CITY     PTSUNNY   26   7  44 S6        30.15F
WALLOPS ISLAND CLOUDY    27   9  46 SE7       30.16F
ACCOMACK*      CLOUDY    28   9  43 CALM      30.15F
$$

NCZ012>017-030>032-122000-
NORTH CENTRAL AND EASTERN NORTH CAROLINA

CITY           SKY/WX    TMP DP  RH WIND       PRES   REMARKS
ROANOKE RAPIDS FAIR      32  12  43 E3        30.13F
RALEIGH        FLURRIES  28  19  69 CALM      30.10F
ELIZABETH CITY LGT SNOW  30  23  75 NE7       30.14F
AHOSKIE*       CLOUDY    30  13  49 CALM      30.14F
EDENTON*       LGT SNOW  32  26  78 NE5       30.14F
CURRITUCK*     FLURRIES  32  20  60 CALM      30.14F
KILL DEVIL HLS LGT SNOW  33  23  67 CALM      30.11F VSB 3/4
MANTEO         LGT SNOW  32  28  85 NE6       30.14F
CAPE HATTERAS  RAIN      34  32  92 NE13G23   30.07F WCI  25
TARBORO*       LGT SNOW  31  24  74 E6        30.13F
GOLDSBORO      NOT AVBL
WASHINGTON     LGT SNOW  30  28  91 N7        30.10F
GREENVILLE     LGT SNOW  30  30 100 NE6       30.12F
NEW BERN       LGT RAIN  33  29  85 NE14      30.07F WCI  23
WILMINGTON     CLOUDY    37  32  82 N7        30.06F
$$

VAZ048-122000-
ELSEWHERE

CITY           SKY/WX    TMP DP  RH WIND       PRES   REMARKS
HARRISBURG PA  CLOUDY    24   5  44 W6        30.09F
BALTIMORE      PTSUNNY   28   3  34 SW5       30.10F
ANNAPOLIS      MOSUNNY   26  11  52 SE12      30.12F WCI  16
ANDREWS AFB    FAIR      29   6  38 VRB6      30.09F
PHILADELPHIA   CLOUDY    25   0  33 SW10G18   30.13F WCI  15
HENDERSON NC   MOSUNNY   31   4  31 CALM      30.09F
GREENSBORO     FLURRIES  32   8  36 NW3       30.05F
ROCKY MOUNT    LGT SNOW  28  22  78 NE3       30.12F VSB 1
$$

VAZ100-122000-
MARINE

STATION/POSITION TIME  TEMP    WIND        PRES    WAVE   SWELL
                       AIR SEA DIR/SP/G            HT/PER HT/PER
                 (UTC) (F)     (DEG/KT/KT) (MB)    (FT/S) (FT/S)
BRANDYWINE LGT   1800   23     160/  3/  5 1022.3F
CAPE MAY NJ      1800   24 36  230/  6/  7 1022.2F
LEWES DE         1800   26 37  250/  7/ 11 1022.0F
15NM E FENWICK I 1850   25 42              1021.4F   1/11
OCEAN-CITY-INLET 1800   24 41  190/  4/  5 1021.6F
WACHAPREAGUE VA  1800   26 37  200/  4/  7 1021.9F
THOMAS POINT MD  1900   24 36  150/  6/  7 1020.7F
GOOSES REEF MD   1900   26 38  160/ 10/ 14 1021.3F
COVE POINT MD    1800   23     150/  7/ 10 1022.5F
SOLOMONS ISLAND  1800   26 40  140/  6/  8   N/A
BISHOPS HEAD MD  1800   25 35  180/  8/ 10 1021.3F
PINEY POINT MD   1800          130/  5/  6   N/A
POTOMAC MD       1900   26 39  140/  4/  8 1019.8F   0
CAMBRIDGE MD     1800   25 36  340/  5/ 10 1021.0F
LEWISETTA VA     1800   25 38  100/  5/  6 1021.7F
RAPPAHANNOCK LGT 1800          230/  2/  2 1022.3F
STINGRAY PT      1900   26 40  140/  4/  6 1020.6F   0
YORK RVR RNG VA  1800   27     140/  5/  6 1021.2F
YORKTOWN VA      1800   27 41   90/  5/ 11 1021.8F
JAMESTOWN VA     1900   28 41  130/  6/  8   N/A     0
DOMINION TERM VA 1800   28      70/  6/ 10 1022.0F
KIPTOPEKE VA     1800      40  140/  7/  8   N/A
CHES BAY BRIDGE  1800   27 41   60/  6/  8 1021.7F
CAPE HENRY VA    1800   28     120/  6/  7   N/A
CHESAPEAKE LGHT  1800   29     120/  4/  6 1022.8F
WILLOUBY STN VA  1800   27     100/  7/  9 1022.7F
CAPE HENRY BUOY  1828      42                N/A     2/ 5
1ST LANDING BUOY 1900      41                N/A     1
CAPE CHARLES BUO 1826      43                N/A     1/ 4   2/ 4
OFFSHORE WE BUOY 1821      45                N/A     2/ 4   2/ 4
64NM E OF VA BCH 1850   33 50  150/  2/  8 1021.0F   3/ 6   2/ 6
DUCK PIER NC     1800   33      70/  7/ 10 1021.1F
44100 DUCK FRF   1824      46                N/A     3/ 6
44056 DUCK FRF   1811      43                N/A     2/ 6
OREGON INLET NC  1800   35 40   30/  7/ 11 1021.2F
HATTERAS NC      1800   34 45   40/ 10/ 18 1019.0F
DIAMOND SHLS NC  1850   47 59   40/ 10/ 19 1017.7F   4/ 7   3/ 7
$$



USA.gov is the U.S. government's official web portal to all federal, state and local government web resources and services.